(279530) = 2011 BM52 = 2007 GS25

Discovered at Kitt Peak on 2005-10-13 by Spacewatch.

Orbit

Orbit type: Main Belt

Note: WebGL enabled browser required.

epoch2024-03-31.0
epoch JD2460400.5
perihelion date2023-06-08.77089
perihelion JD2460104.27089
argument of perihelion (°)73.23682
ascending node (°)16.34919
inclination (°)6.15579
eccentricity0.1964922
perihelion distance (AU)2.1031110
Tisserand w.r.t. Jupiter3.4
ΔV w.r.t. Earth (km/sec)9.3
semimajor axis (AU)2.6174120
mean anomaly (°)68.94832
mean daily motion (°/day)0.23275340
aphelion distance (AU)3.132
period (years)4.23
P-vector [x]0.00877958
P-vector [y]0.87175562
P-vector [z]0.48986228
Q-vector [x]-0.99950577
Q-vector [y]-0.00713711
Q-vector [z]0.03061484
absolute magnitude17.27
phase slope0.15
uncertainty0
referenceE2024-GI3
observations used245
oppositions11
arc length (days)8240
first opposition used2001
last opposition used2024
residual rms (arc-secs)0.78
perturbers coarse indicatorM-v
perturbers precise indicator003Ek
first observation date used2001-09-20.0
last observation date used2024-04-12.0
computer nameMPCLINUX
JD of orbit computation2456494.381893
perihelion JD uncertainty (days)1.6741E-04
argument of perihelion uncertainty (°)9.7339E-05
ascending node uncertainty (°)8.7869E-05
inclination uncertainty (°)1.0643E-05
eccentricity uncertainty 8.1871E-08
perihelion distance uncertainty (AU)2.0083E-07
Minimum Orbit Intersection Distances (in AU)
for orbit epoch: 2460400.5, reference: E2024-GI3
Mercury1.79396
Venus1.38779
Earth1.12966
Mars0.52983
Jupiter2.1153
Saturn6.95897
Uranus15.8403
Neptune27.2165

Observations

236 total observations over interval: 2001 09 20.39745 – 2024 03 17.460756
These data are available for download (format description).

Date (UT) J2000 RA J2000 Dec Magn Location Ref
2001 09 20.39745 02 22 43.58 +15 06 54.1   704 – Lincoln Laboratory ETS, New Mexico MPS 407526
2001 09 20.42560 02 22 42.98 +15 06 57.1   704 – Lincoln Laboratory ETS, New Mexico MPS 407526
2001 09 20.43967 02 22 42.77 +15 06 59.4   704 – Lincoln Laboratory ETS, New Mexico MPS 407526
2001 10 19.37787 02 03 01.15 +15 14 55.7   644 – Palomar Mountain/NEAT MPS 380117
2001 10 19.39903 02 02 59.86 +15 14 54.0 19.6   644 – Palomar Mountain/NEAT MPS 380117
2001 10 19.42014 02 02 58.60 +15 14 52.0   644 – Palomar Mountain/NEAT MPS 380117
2001 10 21.26668 02 01 09.37 +15 12 17.5   704 – Lincoln Laboratory ETS, New Mexico MPS 407526
2001 10 21.28413 02 01 08.28 +15 12 15.8   704 – Lincoln Laboratory ETS, New Mexico MPS 407526
2001 10 21.31716 02 01 06.22 +15 12 12.7   704 – Lincoln Laboratory ETS, New Mexico MPS 407526
2001 10 21.33379 02 01 05.18 +15 12 11.6   704 – Lincoln Laboratory ETS, New Mexico MPS 407526
2001 10 26.30906 01 56 03.95 +15 03 58.0   644 – Palomar Mountain/NEAT MPS 380117
2001 10 26.33024 01 56 02.71 +15 03 55.0 19.4   644 – Palomar Mountain/NEAT MPS 380117
2001 10 26.35141 01 56 01.30 +15 03 53.0   644 – Palomar Mountain/NEAT MPS 380117
2005 10 13.15401 23 49 30.99 -03 15 02.0 20.9 V 691 – Steward Observatory, Kitt Peak-Spacewatch MPS 375688
2005 10 13.16948 23 49 30.25 -03 15 03.7 20.7 V 691 – Steward Observatory, Kitt Peak-Spacewatch MPS 375688
2005 10 13.18488 23 49 29.44 -03 15 05.5 20.9 V 691 – Steward Observatory, Kitt Peak-Spacewatch MPS 375688
2005 12 02.08486 23 41 54.63 -01 37 04.6 21.4 V G96 – Mt. Lemmon Survey MPS 375688
2005 12 02.09288 23 41 54.88 -01 37 01.9 21.0 V G96 – Mt. Lemmon Survey MPS 375688
2005 12 02.10095 23 41 55.14 -01 36 59.4 21.3 V G96 – Mt. Lemmon Survey MPS 375688
2005 12 02.10895 23 41 55.32 -01 36 56.6 21.0 V G96 – Mt. Lemmon Survey MPS 375688
2007 03 12.36787 11 29 15.03 +08 22 16.4 19.6 V G96 – Mt. Lemmon Survey MPS 375688
2007 03 12.37462 11 29 14.60 +08 22 17.7 19.6 V G96 – Mt. Lemmon Survey MPS 375688
2007 03 12.38127 11 29 14.20 +08 22 18.8 20.1 V G96 – Mt. Lemmon Survey MPS 375688
2007 03 12.38794 11 29 13.81 +08 22 20.1 20.2 V G96 – Mt. Lemmon Survey MPS 375688
2007 04 14.19765 11 04 41.58 +09 03 39.6   291 – LPL/Spacewatch II MPS 207029
2007 04 14.20647 11 04 41.42 +09 03 39.2   291 – LPL/Spacewatch II MPS 207029
2007 04 14.21535 11 04 41.23 +09 03 38.5   291 – LPL/Spacewatch II MPS 207029
2007 04 15.21841 11 04 19.08 +09 02 26.0   291 – LPL/Spacewatch II MPS 207029
2007 04 15.22730 11 04 18.85 +09 02 25.5   291 – LPL/Spacewatch II MPS 207029
2007 04 15.23622 11 04 18.65 +09 02 24.8   291 – LPL/Spacewatch II MPS 207029
2010 11 03.42923 09 00 36.15 +24 16 06.6 21.7 V 691 – Steward Observatory, Kitt Peak-Spacewatch MPS 378797
2010 11 03.44788 09 00 37.82 +24 16 02.6 21.4 V 691 – Steward Observatory, Kitt Peak-Spacewatch MPS 378797
2010 11 03.46656 09 00 39.41 +24 15 59.2 21.3 V 691 – Steward Observatory, Kitt Peak-Spacewatch MPS 378797
2011 01 30.26135 09 21 00.01 +26 00 44.8 19.6 R H15 – ISON-NM Observatory, Mayhill MPS 369695
2011 01 30.27699 09 20 59.02 +26 00 48.0 19.5 R H15 – ISON-NM Observatory, Mayhill MPS 369695
2011 01 30.29112 09 20 58.12 +26 00 50.9 19.6 R H15 – ISON-NM Observatory, Mayhill MPS 369695
2011 01 30.30511 09 20 57.23 +26 00 53.7 19.6 R H15 – ISON-NM Observatory, Mayhill MPS 369695
2011 01 30.52904 09 20 43.011 +26 01 35.52 19.8 w F51 – Pan-STARRS 1, Haleakala MPS 379751
2011 01 30.56158 09 20 40.902 +26 01 41.07 19.9 w F51 – Pan-STARRS 1, Haleakala MPS 379751
2011 01 30.57672 09 20 39.922 +26 01 43.74 20.0 w F51 – Pan-STARRS 1, Haleakala MPS 379751
2011 02 05.26319 09 14 42.14 +26 16 25.5 19.4 V 703 – Catalina Sky Survey MPS 369695
2011 02 05.27240 09 14 41.49 +26 16 27.4 19.8 V 703 – Catalina Sky Survey MPS 369695
2011 02 05.28160 09 14 40.84 +26 16 28.8 19.7 V 703 – Catalina Sky Survey MPS 369695
2011 02 05.29079 09 14 40.30 +26 16 30.1 19.9 V 703 – Catalina Sky Survey MPS 369695
2011 02 08.29156 09 11 31.91 +26 22 03.4 19.4   704 – Lincoln Laboratory ETS, New Mexico MPS 369695
2011 02 08.30405 09 11 31.09 +26 22 04.5 19.6   704 – Lincoln Laboratory ETS, New Mexico MPS 369695
2011 02 08.31679 09 11 30.17 +26 22 06.0 19.8   704 – Lincoln Laboratory ETS, New Mexico MPS 369695
2011 02 08.32945 09 11 29.47 +26 22 05.4 19.6   704 – Lincoln Laboratory ETS, New Mexico MPS 369695
2013 07 14.49514 21 41 03.303 -22 33 13.74 21.8 w F51 – Pan-STARRS 1, Haleakala MPS 472576
2013 07 14.51119 21 41 02.668 -22 33 17.19 22.0 w F51 – Pan-STARRS 1, Haleakala MPS 472576
2013 07 14.54300 21 41 01.408 -22 33 25.23 21.7 w F51 – Pan-STARRS 1, Haleakala MPS 472576
2014 11 17.40288 06 21 24.189 +32 23 01.08 20.1 w F51 – Pan-STARRS 1, Haleakala MPS 547343
2014 11 17.41590 06 21 24.003 +32 23 05.30 20.1 w F51 – Pan-STARRS 1, Haleakala MPS 547343
2014 11 17.42906 06 21 23.818 +32 23 09.47 20.2 w F51 – Pan-STARRS 1, Haleakala MPS 547343
2014 11 17.44210 06 21 23.621 +32 23 13.67 20.2 w F51 – Pan-STARRS 1, Haleakala MPS 547343
2014 12 03.48459 06 13 05.521 +33 39 07.36 19.3 i F51 – Pan-STARRS 1, Haleakala MPS 551266
2014 12 03.49771 06 13 04.838 +33 39 10.62 19.2 i F51 – Pan-STARRS 1, Haleakala MPS 551266
2014 12 03.51079 06 13 04.167 +33 39 13.76 19.3 i F51 – Pan-STARRS 1, Haleakala MPS 551266
2014 12 03.52383 06 13 03.487 +33 39 16.96 19.4 i F51 – Pan-STARRS 1, Haleakala MPS 551266
2016 04 12.45872 15 00 55.108 -20 54 49.48 21.5 w F51 – Pan-STARRS 1, Haleakala MPS 703400
2016 04 12.47035 15 00 54.531 -20 54 48.91 21.4 w F51 – Pan-STARRS 1, Haleakala MPS 703400
2016 04 12.48199 15 00 53.955 -20 54 48.20 21.2 w F51 – Pan-STARRS 1, Haleakala MPS 703400
2016 05 01.32567 14 43 34.97 -20 20 41.5 21.6 V W84 – Cerro Tololo-DECam MPS 789272
2016 05 01.32887 14 43 34.77 -20 20 41.0   W84 – Cerro Tololo-DECam MPS 789272
2016 05 01.33529 14 43 34.39 -20 20 39.9   W84 – Cerro Tololo-DECam MPS 789272
2016 05 01.33852 14 43 34.18 -20 20 39.4   W84 – Cerro Tololo-DECam MPS 789272
2016 05 02.32140 14 42 36.46 -20 18 09.3 21.5 V G96 – Mt. Lemmon Survey MPS 707979
2016 05 02.32569 14 42 36.24 -20 18 09.4 21.2 V G96 – Mt. Lemmon Survey MPS 707979
2016 05 02.32997 14 42 35.97 -20 18 08.3 21.3 V G96 – Mt. Lemmon Survey MPS 707979
2016 05 02.33426 14 42 35.68 -20 18 07.3 20.9 V G96 – Mt. Lemmon Survey MPS 707979
2016 05 03.37885 14 41 34.00 -20 15 13.6 21.6 V W84 – Cerro Tololo-DECam MPS 789272
2016 05 03.38201 14 41 33.81 -20 15 13.0   W84 – Cerro Tololo-DECam MPS 789272
2016 05 03.38520 14 41 33.61 -20 15 12.4   W84 – Cerro Tololo-DECam MPS 789272
2018 10 12.77375 03 07 43.70 +21 23 19.2 19.8 R D29 – Purple Mountain Observatory, XuYi Station MPS 926933
2018 10 12.79143 03 07 43.10 +21 23 21.7 19.8 R D29 – Purple Mountain Observatory, XuYi Station MPS 926933
2018 10 12.80911 03 07 42.42 +21 23 24.5 20.0 R D29 – Purple Mountain Observatory, XuYi Station MPS 926933
2018 10 16.56640 03 05 22.306 +21 30 46.01 20.3 w F52 – Pan-STARRS 2, Haleakala MPS 930690
2018 10 16.58173 03 05 21.638 +21 30 47.41 20.4 w F52 – Pan-STARRS 2, Haleakala MPS 930690
2018 10 16.59709 03 05 20.980 +21 30 48.93 20.2 w F52 – Pan-STARRS 2, Haleakala MPS 930690
2018 10 16.61250 03 05 20.320 +21 30 50.41 20.3 w F52 – Pan-STARRS 2, Haleakala MPS 930690
2018 11 01.31749 02 51 44.83 +21 42 13.4 19.8 G G96 – Mt. Lemmon Survey MPS 936179
2018 11 01.32008 02 51 44.72 +21 42 14.7 20.4 G 703 – Catalina Sky Survey MPS 936179
2018 11 01.32304 02 51 44.49 +21 42 13.5 19.6 G G96 – Mt. Lemmon Survey MPS 936179
2018 11 01.32859 02 51 44.13 +21 42 13.2 19.6 G G96 – Mt. Lemmon Survey MPS 936179
2018 11 01.33079 02 51 43.97 +21 42 12.9 20.0 G 703 – Catalina Sky Survey MPS 936179
2018 11 01.33414 02 51 43.78 +21 42 13.2 19.6 G G96 – Mt. Lemmon Survey MPS 936179
2018 11 01.33615 02 51 43.62 +21 42 13.8 19.7 G 703 – Catalina Sky Survey MPS 936179
2018 11 01.71205 02 51 20.81 +21 42 06.1 19.5 R D29 – Purple Mountain Observatory, XuYi Station MPS 936179
2018 11 01.72796 02 51 19.77 +21 42 06.4 19.8 R D29 – Purple Mountain Observatory, XuYi Station MPS 936179
2018 11 01.74387 02 51 18.79 +21 42 05.9 20.0 R D29 – Purple Mountain Observatory, XuYi Station MPS 936179
2018 11 04.28203 02 48 42.92 +21 40 54.4 19.9 G 703 – Catalina Sky Survey MPS 936179
